• In Uzbekistan
  • List of Countries
  • For 7 days
  • Water Temperature
  • Satellite Maps
  • Weather Map
  • Weather Widgets
  • user-avatar
    Login

    Hourly Weather Bobiecino

    Today, 26 September, Wednesday

    Time Temperature Precipitation Wind Pressure Humidity
    00:00 +5°C° 0 mm 4 mps 759 mmHg 75%
    01:00 +5°C° 0 mm 3 mps 759 mmHg 77%
    02:00 +5°C° 0 mm 4 mps 758 mmHg 76%
    03:00 +5°C° 0 mm 4 mps 758 mmHg 75%
    04:00 +5°C° 0 mm 5 mps 758 mmHg 74%
    05:00 +5°C° 0 mm 5 mps 757 mmHg 71%
    06:00 +5°C° 0 mm 6 mps 757 mmHg 69%
    07:00 +5°C° 0 mm 6 mps 757 mmHg 67%
    08:00 +7°C° 0.2 mm 6 mps 757 mmHg 69%
    09:00 +6°C° 0.2 mm 7 mps 756 mmHg 70%
    10:00 +8°C° 0.2 mm 7 mps 756 mmHg 72%
    11:00 +8°C° 0.1 mm 7 mps 755 mmHg 69%
    12:00 +9°C° 0.1 mm 8 mps 755 mmHg 65%
    13:00 +9°C° 0.1 mm 8 mps 754 mmHg 62%
    14:00 +10°C° 0.1 mm 8 mps 753 mmHg 59%
    15:00 +10°C° 0.1 mm 8 mps 753 mmHg 57%
    16:00 +11°C° 0.1 mm 8 mps 752 mmHg 54%
    17:00 +11°C° 0.1 mm 8 mps 752 mmHg 57%
    18:00 +11°C° 0.1 mm 8 mps 751 mmHg 59%
    19:00 +11°C° 0.1 mm 8 mps 751 mmHg 62%
    20:00 +11°C° 0.1 mm 8 mps 751 mmHg 65%
    21:00 +12°C° 0.1 mm 8 mps 750 mmHg 68%
    22:00 +12°C° 0.1 mm 8 mps 750 mmHg 71%
    23:00 +12°C° 0.1 mm 8 mps 750 mmHg 76%

    Tomorrow, 27 September, Thursday

    Time Temperature Precipitation Wind Pressure Humidity
    00:00 +13°C° 0.1 mm 8 mps 750 mmHg 80%
    01:00 +13°C° 0.1 mm 8 mps 750 mmHg 85%
    02:00 +13°C° 0.2 mm 8 mps 750 mmHg 86%
    03:00 +13°C° 0.2 mm 8 mps 750 mmHg 87%
    04:00 +14°C° 0.2 mm 7 mps 750 mmHg 88%
    05:00 +14°C° 0.1 mm 7 mps 750 mmHg 88%
    06:00 +14°C° 0.1 mm 7 mps 751 mmHg 88%
    07:00 +14°C° 0.1 mm 7 mps 751 mmHg 88%
    08:00 +15°C° 0.1 mm 6 mps 751 mmHg 87%
    09:00 +15°C° 0.1 mm 6 mps 751 mmHg 86%
    10:00 +15°C° 0.1 mm 6 mps 752 mmHg 85%
    11:00 +15°C° 0.1 mm 6 mps 751 mmHg 83%
    12:00 +16°C° 0.1 mm 6 mps 751 mmHg 81%
    13:00 +16°C° 0.1 mm 6 mps 751 mmHg 80%
    14:00 +16°C° 0 mm 6 mps 750 mmHg 79%
    15:00 +17°C° 0 mm 6 mps 750 mmHg 78%
    16:00 +17°C° 0 mm 5 mps 749 mmHg 77%
    17:00 +16°C° 0.1 mm 5 mps 749 mmHg 79%
    18:00 +16°C° 0.1 mm 5 mps 748 mmHg 81%
    19:00 +16°C° 0.1 mm 5 mps 748 mmHg 83%
    20:00 +16°C° 0.1 mm 6 mps 747 mmHg 82%
    21:00 +16°C° 0.1 mm 6 mps 747 mmHg 82%
    22:00 +16°C° 0.1 mm 6 mps 746 mmHg 82%
    23:00 +15°C° 0.2 mm 6 mps 745 mmHg 81%

    Day after tomorrow, 28 September, Friday

    Time Temperature Precipitation Wind Pressure Humidity
    00:00 +15°C° 0.2 mm 7 mps 745 mmHg 80%
    01:00 +15°C° 0.2 mm 7 mps 745 mmHg 79%
    02:00 +14°C° 0.5 mm 7 mps 745 mmHg 81%
    03:00 +14°C° 0.5 mm 7 mps 745 mmHg 82%
    04:00 +12°C° 0.5 mm 7 mps 745 mmHg 83%
    05:00 +11°C° 0.1 mm 6 mps 745 mmHg 81%
    06:00 +10°C° 0.1 mm 6 mps 745 mmHg 78%
    07:00 +10°C° 0.1 mm 5 mps 746 mmHg 75%
    08:00 +10°C° 0 mm 5 mps 746 mmHg 71%
    09:00 +11°C° 0 mm 6 mps 747 mmHg 67%
    10:00 +11°C° 0 mm 6 mps 747 mmHg 62%
    11:00 +13°C° 0 mm 6 mps 747 mmHg 61%
    12:00 +13°C° 0 mm 5 mps 748 mmHg 59%
    13:00 +13°C° 0 mm 5 mps 748 mmHg 57%
    14:00 +13°C° 0 mm 5 mps 748 mmHg 58%
    15:00 +12°C° 0 mm 5 mps 748 mmHg 59%
    16:00 +12°C° 0 mm 4 mps 748 mmHg 60%
    17:00 +11°C° 0 mm 4 mps 749 mmHg 63%
    18:00 +10°C° 0 mm 3 mps 749 mmHg 67%
    19:00 +9°C° 0 mm 2 mps 749 mmHg 70%
    20:00 +8°C° 0 mm 2 mps 749 mmHg 70%
    21:00 +8°C° 0 mm 2 mps 750 mmHg 70%
    22:00 +9°C° 0 mm 1 mps 750 mmHg 70%
    23:00 +7°C° 0.1 mm 2 mps 750 mmHg 71%

    29 September, Saturday

    Time Temperature Precipitation Wind Pressure Humidity
    00:00 +7°C° 0.1 mm 2 mps 751 mmHg 72%
    01:00 +7°C° 0.1 mm 2 mps 751 mmHg 73%
    02:00 +7°C° 0.1 mm 2 mps 751 mmHg 74%
    03:00 +7°C° 0.1 mm 2 mps 751 mmHg 75%
    04:00 +7°C° 0.1 mm 2 mps 752 mmHg 76%
    05:00 +8°C° 0 mm 1 mps 752 mmHg 75%
    06:00 +8°C° 0 mm 1 mps 753 mmHg 73%
    07:00 +8°C° 0 mm 1 mps 753 mmHg 71%
    08:00 +10°C° 0 mm 1 mps 754 mmHg 62%
    09:00 +11°C° 0 mm 1 mps 754 mmHg 53%
    10:00 +13°C° 0 mm 2 mps 755 mmHg 43%
    11:00 +13°C° 0 mm 2 mps 755 mmHg 40%
    12:00 +14°C° 0 mm 2 mps 755 mmHg 37%
    13:00 +14°C° 0 mm 2 mps 755 mmHg 34%
    14:00 +14°C° 0 mm 2 mps 755 mmHg 35%
    15:00 +14°C° 0 mm 2 mps 755 mmHg 36%
    16:00 +13°C° 0 mm 2 mps 755 mmHg 38%
    17:00 +12°C° 0 mm 2 mps 755 mmHg 42%
    18:00 +9°C° 0 mm 2 mps 755 mmHg 47%
    19:00 +9°C° 0 mm 1 mps 755 mmHg 51%
    20:00 +8°C° 0 mm 1 mps 755 mmHg 52%
    21:00 +7°C° 0 mm 2 mps 755 mmHg 52%
    22:00 +7°C° 0 mm 2 mps 755 mmHg 52%
    23:00 +7°C° 0 mm 2 mps 755 mmHg 53%

    30 September, Sunday

    Time Temperature Precipitation Wind Pressure Humidity
    00:00 +6°C° 0 mm 2 mps 755 mmHg 54%
    01:00 +6°C° 0 mm 2 mps 755 mmHg 54%
    02:00 +6°C° 0 mm 2 mps 754 mmHg 56%
    03:00 +5°C° 0 mm 3 mps 754 mmHg 57%
    04:00 +4°C° 0 mm 3 mps 753 mmHg 59%
    05:00 +5°C° 0 mm 3 mps 753 mmHg 61%
    06:00 +5°C° 0 mm 3 mps 753 mmHg 62%
    07:00 +5°C° 0 mm 3 mps 753 mmHg 64%
    08:00 +8°C° 0 mm 3 mps 753 mmHg 59%
    09:00 +10°C° 0 mm 4 mps 753 mmHg 54%
    10:00 +12°C° 0 mm 4 mps 753 mmHg 49%
    11:00 +13°C° 0 mm 4 mps 752 mmHg 47%
    12:00 +14°C° 0 mm 4 mps 752 mmHg 45%
    13:00 +14°C° 0 mm 4 mps 751 mmHg 43%
    14:00 +14°C° 0 mm 4 mps 751 mmHg 45%
    15:00 +14°C° 0 mm 4 mps 750 mmHg 46%
    16:00 +14°C° 0 mm 3 mps 750 mmHg 47%
    17:00 +12°C° 0 mm 3 mps 749 mmHg 52%
    18:00 +11°C° 0 mm 3 mps 749 mmHg 57%
    19:00 +9°C° 0 mm 2 mps 749 mmHg 62%
    20:00 +9°C° 0 mm 2 mps 749 mmHg 63%
    21:00 +8°C° 0 mm 3 mps 748 mmHg 63%
    22:00 +8°C° 0 mm 3 mps 748 mmHg 64%
    23:00 +7°C° 0 mm 3 mps 747 mmHg 63%

    1 October, Monday

    Time Temperature Precipitation Wind Pressure Humidity
    00:00 +7°C° 0 mm 3 mps 747 mmHg 63%
    01:00 +5°C° 0 mm 3 mps 746 mmHg 62%
    02:00 +6°C° 0 mm 2 mps 746 mmHg 63%
    03:00 +6°C° 0 mm 2 mps 745 mmHg 63%
    04:00 +5°C° 0 mm 2 mps 745 mmHg 63%
    05:00 +5°C° 0 mm 2 mps 744 mmHg 63%
    06:00 +5°C° 0 mm 2 mps 744 mmHg 64%
    07:00 +6°C° 0 mm 2 mps 743 mmHg 64%
    08:00 +7°C° 0 mm 2 mps 743 mmHg 59%
    09:00 +9°C° 0 mm 2 mps 743 mmHg 54%
    10:00 +12°C° 0 mm 2 mps 743 mmHg 49%
    11:00 +13°C° 0 mm 2 mps 742 mmHg 46%
    12:00 +15°C° 0 mm 1 mps 742 mmHg 43%
    13:00 +16°C° 0 mm 1 mps 742 mmHg 40%
    14:00 +16°C° 0 mm 1 mps 742 mmHg 42%
    15:00 +15°C° 0 mm 1 mps 741 mmHg 44%
    16:00 +15°C° 0 mm 1 mps 741 mmHg 47%
    17:00 +13°C° 0 mm 1 mps 741 mmHg 51%
    18:00 +12°C° 0 mm 1 mps 741 mmHg 56%
    19:00 +10°C° 0 mm 2 mps 742 mmHg 60%
    20:00 +9°C° 0 mm 2 mps 742 mmHg 63%
    21:00 +8°C° 0 mm 2 mps 742 mmHg 66%
    22:00 +8°C° 0 mm 2 mps 742 mmHg 68%
    23:00 +7°C° 0 mm 2 mps 743 mmHg 71%
    Show more